| time (UTC) | temp F | wind direction | speed knots | gust knots | rain 1hr in | rain 24hr in | rain mn in | humidity % | barometer mb |
| 20260506221936 | 66 | 197 | 1.7 | 4.3 | 0.00 | 0.20 | 0.20 | 83 | 982.1 |
| 20260506221437 | 65 | 296 | 0.9 | 3.5 | 0.00 | 0.20 | 0.20 | 84 | 982.1 |
| 20260506221210 | 65 | 197 | 0.9 | 2.6 | 0.00 | 0.20 | 0.20 | 84 | 982.1 |
| 20260506220657 | 65 | 215 | 1.7 | 3.5 | 0.00 | 0.20 | 0.20 | 84 | 982.1 |
| 20260506215932 | 65 | 328 | 0.9 | 3.5 | 0.00 | 0.20 | 0.20 | 84 | 982.1 |
| 20260506215432 | 65 | 0 | 0.9 | 2.6 | 0.00 | 0.20 | 0.20 | 85 | 982.2 |
| 20260506215205 | 65 | 336 | 0.9 | 1.7 | 0.00 | 0.20 | 0.20 | 84 | 982.2 |
| 20260506214431 | 65 | 344 | 1.7 | 5.2 | 0.00 | 0.20 | 0.20 | 84 | 981.9 |
| 20260506214218 | 65 | 4 | 1.7 | 5.2 | 0.00 | 0.20 | 0.20 | 83 | 982.0 |
| 20260506213430 | 65 | 18 | 1.7 | 4.3 | 0.00 | 0.20 | 0.20 | 83 | 982.0 |
| 20260506212930 | 65 | 207 | 1.7 | 3.5 | 0.00 | 0.20 | 0.20 | 83 | 982.0 |
| 20260506212432 | 65 | 213 | 1.7 | 3.5 | 0.00 | 0.20 | 0.20 | 83 | 981.9 |
| 20260506211929 | 65 | 220 | 1.7 | 3.5 | 0.00 | 0.20 | 0.20 | 83 | 981.8 |
| 20260506211431 | 65 | 24 | 1.7 | 4.3 | 0.00 | 0.20 | 0.20 | 82 | 981.7 |
| 20260506211214 | 65 | 31 | 2.6 | 5.2 | 0.00 | 0.20 | 0.20 | 83 | 981.7 |
| 20260506210429 | 65 | 245 | 2.6 | 5.2 | 0.00 | 0.20 | 0.20 | 82 | 981.6 |
| 20260506210219 | 66 | 286 | 2.6 | 5.2 | 0.00 | 0.20 | 0.20 | 82 | 981.6 |
| 20260506205430 | 66 | 213 | 2.6 | 5.2 | 0.00 | 0.20 | 0.20 | 82 | 981.7 |
| 20260506204928 | 66 | 291 | 1.7 | 5.2 | 0.00 | 0.20 | 0.20 | 82 | 981.6 |
| 20260506204430 | 65 | 341 | 1.7 | 3.5 | 0.00 | 0.20 | 0.20 | 84 | 981.6 |
| 20260506203930 | 65 | 332 | 1.7 | 3.5 | 0.00 | 0.20 | 0.20 | 84 | 981.6 |
| 20260506203430 | 64 | 300 | 1.7 | 5.2 | 0.00 | 0.20 | 0.20 | 84 | 981.6 |
| 20260506202929 | 64 | 190 | 1.7 | 6.1 | 0.00 | 0.20 | 0.20 | 84 | 981.6 |
| 20260506202718 | 64 | 269 | 1.7 | 6.1 | 0.00 | 0.20 | 0.20 | 84 | 981.6 |
| 20260506202217 | 64 | 0 | 1.7 | 6.1 | 0.00 | 0.20 | 0.20 | 85 | 981.6 |
| 20260506201429 | 64 | 269 | 1.7 | 4.3 | 0.00 | 0.20 | 0.20 | 85 | 981.5 |
| 20260506200931 | 64 | 196 | 1.7 | 3.5 | 0.00 | 0.20 | 0.20 | 86 | 981.6 |
| 20260506200436 | 64 | 27 | 1.7 | 7.0 | 0.00 | 0.20 | 0.20 | 86 | 981.6 |
| 20260506195933 | 64 | 288 | 1.7 | 7.0 | 0.00 | 0.20 | 0.20 | 86 | 981.5 |
| 20260506195510 | 63 | 21 | 2.6 | 7.0 | 0.00 | 0.20 | 0.20 | 86 | 981.7 |
| 20260506195456 | 64 | 252 | 2.6 | 7.0 | 0.00 | 0.20 | 0.20 | 86 | 981.6 |
| 20260506194429 | 63 | 117 | 1.7 | 7.0 | 0.00 | 0.20 | 0.20 | 87 | 981.7 |
| 20260506193930 | 63 | 278 | 1.7 | 6.1 | 0.00 | 0.20 | 0.20 | 88 | 981.7 |
| 20260506193428 | 62 | 275 | 1.7 | 6.1 | 0.00 | 0.20 | 0.20 | 88 | 981.9 |
| 20260506192930 | 62 | 304 | 2.6 | 6.1 | 0.00 | 0.20 | 0.20 | 88 | 981.9 |
| 20260506192428 | 62 | 44 | 2.6 | 6.1 | 0.00 | 0.20 | 0.20 | 88 | 982.0 |
| 20260506192212 | 62 | 171 | 2.6 | 5.2 | 0.00 | 0.20 | 0.20 | 89 | 981.9 |
| 20260506191430 | 62 | 285 | 1.7 | 3.5 | 0.00 | 0.20 | 0.20 | 89 | 981.9 |
| 20260506190942 | 62 | 178 | 1.7 | 5.2 | 0.00 | 0.20 | 0.20 | 90 | 982.0 |
| 20260506190937 | 62 | 200 | 1.7 | 3.5 | 0.00 | 0.20 | 0.20 | 90 | 981.9 |
| 20260506185929 | 61 | 210 | 1.7 | 5.2 | 0.00 | 0.20 | 0.20 | 90 | 982.0 |
| 20260506185430 | 61 | 216 | 1.7 | 3.5 | 0.00 | 0.20 | 0.20 | 91 | 982.1 |
| 20260506185208 | 61 | 220 | 1.7 | 5.2 | 0.00 | 0.20 | 0.20 | 91 | 982.1 |
| 20260506184429 | 61 | 226 | 2.6 | 6.1 | 0.00 | 0.20 | 0.20 | 91 | 982.2 |
| 20260506183928 | 60 | 167 | 2.6 | 6.1 | 0.00 | 0.20 | 0.20 | 91 | 982.2 |
| 20260506183429 | 60 | 178 | 2.6 | 5.2 | 0.00 | 0.20 | 0.20 | 92 | 982.3 |
| 20260506182929 | 60 | 186 | 1.7 | 3.5 | 0.00 | 0.20 | 0.20 | 92 | 982.3 |
| 20260506182431 | 60 | 204 | 2.6 | 5.2 | 0.00 | 0.20 | 0.20 | 92 | 982.4 |
| 20260506182213 | 60 | 122 | 2.6 | 6.1 | 0.00 | 0.20 | 0.20 | 92 | 982.5 |
| 20260506181430 | 60 | 326 | 2.6 | 6.1 | 0.00 | 0.20 | 0.20 | 92 | 982.6 |
| 20260506180930 | 60 | 202 | 1.7 | 5.2 | 0.00 | 0.20 | 0.20 | 92 | 982.7 |
| 20260506180432 | 60 | 247 | 2.6 | 7.0 | 0.00 | 0.20 | 0.20 | 92 | 982.7 |
| 20260506175931 | 60 | 260 | 2.6 | 7.0 | 0.00 | 0.20 | 0.20 | 92 | 982.8 |
| 20260506175431 | 60 | 241 | 2.6 | 7.0 | 0.00 | 0.20 | 0.20 | 92 | 982.8 |
| 20260506174931 | 60 | 138 | 2.6 | 7.0 | 0.00 | 0.20 | 0.20 | 92 | 982.8 |
| 20260506174430 | 60 | 234 | 2.6 | 5.2 | 0.00 | 0.20 | 0.20 | 92 | 982.7 |
| 20260506173930 | 60 | 171 | 2.6 | 5.2 | 0.00 | 0.20 | 0.20 | 92 | 982.7 |
| 20260506173431 | 60 | 243 | 2.6 | 5.2 | 0.00 | 0.20 | 0.20 | 91 | 982.7 |
| 20260506173220 | 60 | 207 | 2.6 | 6.1 | 0.00 | 0.20 | 0.20 | 91 | 982.7 |
| 20260506172431 | 60 | 335 | 2.6 | 6.1 | 0.00 | 0.20 | 0.20 | 91 | 982.7 |
| 20260506171931 | 60 | 223 | 2.6 | 6.1 | 0.00 | 0.20 | 0.20 | 91 | 982.6 |
| 20260506171431 | 60 | 215 | 2.6 | 7.8 | 0.00 | 0.20 | 0.20 | 92 | 982.6 |
| 20260506171340 | 60 | 194 | 3.5 | 8.7 | 0.00 | 0.20 | 0.20 | 92 | 982.6 |
| 20260506171336 | 60 | 170 | 2.6 | 7.0 | 0.01 | 0.20 | 0.20 | 92 | 982.7 |
| 20260506171331 | 60 | 190 | 3.5 | 8.7 | 0.00 | 0.20 | 0.20 | 92 | 982.6 |
| 20260506165431 | 59 | 197 | 3.5 | 7.0 | 0.01 | 0.20 | 0.20 | 92 | 982.7 |
| 20260506164930 | 59 | 273 | 2.6 | 7.0 | 0.02 | 0.20 | 0.20 | 92 | 982.7 |
| 20260506164510 | 59 | 168 | 2.6 | 7.0 | 0.02 | 0.20 | 0.20 | 92 | 982.9 |
| 20260506164458 | 59 | 17 | 2.6 | 7.0 | 0.02 | 0.20 | 0.20 | 92 | 982.8 |
| 20260506163431 | 59 | 218 | 2.6 | 6.1 | 0.04 | 0.20 | 0.20 | 92 | 982.8 |
| 20260506162931 | 59 | 144 | 3.5 | 8.7 | 0.04 | 0.20 | 0.19 | 92 | 982.7 |
| 20260506162430 | 59 | 194 | 4.3 | 8.7 | 0.04 | 0.19 | 0.19 | 92 | 982.9 |
| 20260506161930 | 59 | 207 | 4.3 | 9.6 | 0.05 | 0.19 | 0.19 | 92 | 982.8 |
| 20260506161430 | 59 | 195 | 4.3 | 9.6 | 0.06 | 0.19 | 0.19 | 92 | 982.6 |
| 20260506161226 | 59 | 89 | 3.5 | 7.8 | 0.06 | 0.19 | 0.19 | 93 | 982.6 |
| 20260506160430 | 59 | 225 | 3.5 | 7.0 | 0.07 | 0.19 | 0.19 | 93 | 982.5 |
| 20260506160216 | 59 | 272 | 2.6 | 7.8 | 0.07 | 0.19 | 0.19 | 92 | 982.6 |
| 20260506155429 | 59 | 213 | 3.5 | 7.8 | 0.09 | 0.19 | 0.19 | 92 | 982.8 |
| 20260506154931 | 59 | 177 | 3.5 | 7.0 | 0.10 | 0.18 | 0.18 | 92 | 983.2 |
| 20260506154430 | 59 | 227 | 2.6 | 7.0 | 0.11 | 0.18 | 0.18 | 92 | 983.4 |
| 20260506154220 | 59 | 215 | 2.6 | 6.1 | 0.10 | 0.17 | 0.17 | 92 | 983.5 |
| 20260506153511 | 59 | 220 | 3.5 | 7.0 | 0.09 | 0.16 | 0.15 | 92 | 983.7 |
| 20260506153457 | 59 | 306 | 3.5 | 7.0 | 0.09 | 0.16 | 0.16 | 92 | 983.6 |
| 20260506152429 | 59 | 223 | 3.5 | 6.1 | 0.09 | 0.15 | 0.15 | 92 | 983.6 |
| 20260506151929 | 59 | 168 | 2.6 | 6.1 | 0.08 | 0.14 | 0.14 | 92 | 983.7 |
| 20260506151429 | 59 | 256 | 1.7 | 8.7 | 0.08 | 0.13 | 0.13 | 92 | 983.8 |
| 20260506151206 | 60 | 202 | 1.7 | 8.7 | 0.09 | 0.13 | 0.13 | 92 | 983.8 |
| 20260506150428 | 60 | 324 | 2.6 | 8.7 | 0.09 | 0.13 | 0.12 | 92 | 983.9 |
| 20260506145928 | 60 | 213 | 1.7 | 5.2 | 0.08 | 0.11 | 0.11 | 91 | 983.9 |
| 20260506145433 | 60 | 207 | 2.6 | 8.7 | 0.07 | 0.09 | 0.09 | 91 | 983.7 |
| 20260506144929 | 60 | 278 | 3.5 | 8.7 | 0.06 | 0.08 | 0.08 | 90 | 983.6 |
| 20260506144429 | 60 | 171 | 3.5 | 7.8 | 0.06 | 0.07 | 0.07 | 91 | 983.6 |
| 20260506143928 | 60 | 195 | 3.5 | 7.8 | 0.06 | 0.07 | 0.07 | 90 | 983.5 |
| 20260506143429 | 60 | 205 | 3.5 | 7.8 | 0.06 | 0.07 | 0.06 | 90 | 983.7 |
| 20260506142929 | 60 | 189 | 3.5 | 7.0 | 0.05 | 0.06 | 0.06 | 90 | 983.6 |
| 20260506142428 | 60 | 166 | 2.6 | 8.7 | 0.05 | 0.06 | 0.06 | 90 | 983.7 |
| 20260506141929 | 60 | 231 | 2.6 | 8.7 | 0.05 | 0.06 | 0.06 | 89 | 983.6 |
| 20260506141429 | 60 | 187 | 2.6 | 7.0 | 0.04 | 0.05 | 0.05 | 89 | 983.6 |
| 20260506140929 | 60 | 145 | 2.6 | 7.0 | 0.04 | 0.05 | 0.05 | 88 | 983.7 |
| 20260506140429 | 61 | 267 | 2.6 | 7.0 | 0.03 | 0.04 | 0.04 | 87 | 983.6 |
| 20260506135929 | 61 | 196 | 2.6 | 7.0 | 0.02 | 0.03 | 0.03 | 86 | 983.6 |
| 20260506135429 | 61 | 186 | 2.6 | 7.0 | 0.02 | 0.02 | 0.02 | 86 | 983.7 |
| 20260506135204 | 61 | 209 | 1.7 | 4.3 | 0.02 | 0.02 | 0.02 | 85 | 983.7 |
| 20260506134429 | 61 | 176 | 1.7 | 5.2 | 0.01 | 0.02 | 0.02 | 84 | 983.6 |
| 20260506134212 | 62 | 218 | 1.7 | 5.2 | 0.01 | 0.02 | 0.02 | 84 | 983.6 |
| 20260506133428 | 62 | 189 | 1.7 | 4.3 | 0.01 | 0.01 | 0.01 | 83 | 983.6 |
| 20260506132929 | 62 | 332 | 2.6 | 7.8 | 0.01 | 0.01 | 0.01 | 83 | 983.5 |
| 20260506132713 | 62 | 288 | 2.6 | 7.8 | 0.01 | 0.01 | 0.01 | 82 | 983.5 |
| 20260506131929 | 62 | 308 | 2.6 | 7.8 | 0.01 | 0.01 | 0.01 | 83 | 983.6 |
| 20260506131428 | 62 | 283 | 1.7 | 6.1 | 0.01 | 0.01 | 0.01 | 83 | 983.8 |
| 20260506130930 | 62 | 280 | 2.6 | 7.0 | 0.01 | 0.01 | 0.01 | 83 | 983.7 |
| 20260506130715 | 62 | 288 | 3.5 | 7.0 | 0.01 | 0.01 | 0.01 | 81 | 983.7 |
| 20260506125930 | 62 | 207 | 3.5 | 6.1 | 0.01 | 0.01 | 0.01 | 81 | 983.7 |
| 20260506125428 | 62 | 295 | 2.6 | 6.1 | 0.01 | 0.01 | 0.00 | 80 | 983.8 |
| 20260506124930 | 62 | 210 | 2.6 | 6.1 | 0.00 | 0.00 | 0.00 | 81 | 983.8 |
| 20260506124429 | 62 | 156 | 2.6 | 6.1 | 0.00 | 0.00 | 0.00 | 80 | 983.9 |
| 20260506123930 | 63 | 191 | 2.6 | 6.1 | 0.00 | 0.00 | 0.00 | 80 | 984.0 |
| 20260506123429 | 63 | 253 | 2.6 | 6.1 | 0.00 | 0.00 | 0.00 | 79 | 984.0 |
| 20260506122930 | 63 | 189 | 2.6 | 6.1 | 0.00 | 0.00 | 0.00 | 79 | 984.1 |
| 20260506122429 | 63 | 218 | 2.6 | 6.1 | 0.00 | 0.00 | 0.00 | 79 | 983.9 |
| 20260506121930 | 63 | 210 | 2.6 | 6.1 | 0.00 | 0.00 | 0.00 | 78 | 983.7 |
| 20260506121429 | 63 | 205 | 3.5 | 6.1 | 0.00 | 0.00 | 0.00 | 79 | 983.8 |
| 20260506120929 | 63 | 307 | 3.5 | 7.8 | 0.00 | 0.00 | 0.00 | 78 | 983.9 |
| 20260506120428 | 63 | 182 | 2.6 | 7.8 | 0.00 | 0.00 | 0.00 | 78 | 983.8 |
| 20260506120219 | 63 | 279 | 2.6 | 6.1 | 0.00 | 0.00 | 0.00 | 78 | 983.6 |
| 20260506115720 | 63 | 209 | 3.5 | 6.1 | 0.00 | 0.00 | 0.00 | 78 | 983.6 |
| 20260506114928 | 63 | 4 | 3.5 | 6.1 | 0.00 | 0.00 | 0.00 | 77 | 983.5 |
| 20260506114429 | 63 | 298 | 2.6 | 7.8 | 0.00 | 0.00 | 0.00 | 78 | 983.6 |
| 20260506113928 | 63 | 193 | 3.5 | 7.8 | 0.00 | 0.00 | 0.00 | 78 | 983.5 |
| 20260506113429 | 63 | 156 | 3.5 | 7.8 | 0.00 | 0.00 | 0.00 | 78 | 983.5 |
| 20260506112929 | 63 | 203 | 3.5 | 7.8 | 0.00 | 0.00 | 0.00 | 78 | 983.5 |
| 20260506112719 | 63 | 226 | 2.6 | 5.2 | 0.00 | 0.00 | 0.00 | 78 | 983.4 |
| 20260506111929 | 63 | 58 | 2.6 | 4.3 | 0.00 | 0.00 | 0.00 | 78 | 983.5 |
| 20260506111417 | 63 | 171 | 2.6 | 6.1 | 0.00 | 0.00 | 0.00 | 78 | 983.5 |
| 20260506110918 | 63 | 316 | 2.6 | 6.1 | 0.00 | 0.00 | 0.00 | 78 | 983.5 |
| 20260506110417 | 63 | 175 | 2.6 | 5.2 | 0.00 | 0.00 | 0.00 | 78 | 983.4 |
| 20260506105916 | 63 | 246 | 1.7 | 6.1 | 0.00 | 0.00 | 0.00 | 78 | 983.4 |
| 20260506105406 | 63 | 182 | 2.6 | 7.8 | 0.00 | 0.00 | 0.00 | 78 | 983.4 |
| 20260506104907 | 63 | 293 | 3.5 | 7.8 | 0.00 | 0.00 | 0.00 | 78 | 983.5 |
| 20260506104655 | 63 | 288 | 2.6 | 6.1 | 0.00 | 0.00 | 0.00 | 78 | 983.3 |
| 20260506103907 | 63 | 257 | 3.5 | 7.8 | 0.00 | 0.00 | 0.00 | 78 | 983.3 |
| 20260506103407 | 63 | 206 | 3.5 | 7.8 | 0.00 | 0.00 | 0.00 | 78 | 983.2 |
| 20260506102903 | 63 | 147 | 3.5 | 7.8 | 0.00 | 0.00 | 0.00 | 78 | 983.3 |
| 20260506102443 | 63 | 183 | 3.5 | 6.1 | 0.00 | 0.00 | 0.00 | 78 | 983.2 |
| 20260506102431 | 63 | 222 | 3.5 | 7.8 | 0.00 | 0.00 | 0.00 | 78 | 983.2 |
| 20260506101651 | 63 | 260 | 2.6 | 6.1 | 0.00 | 0.00 | 0.00 | 78 | 983.2 |
| 20260506100902 | 63 | 259 | 2.6 | 5.2 | 0.00 | 0.00 | 0.00 | 78 | 983.2 |
| 20260506100402 | 63 | 195 | 2.6 | 7.0 | 0.00 | 0.00 | 0.00 | 78 | 983.2 |
| 20260506095902 | 63 | 174 | 2.6 | 7.0 | 0.00 | 0.00 | 0.00 | 78 | 983.2 |
| 20260506095401 | 63 | 163 | 2.6 | 6.1 | 0.00 | 0.00 | 0.00 | 77 | 983.1 |
| 20260506094903 | 64 | 219 | 3.5 | 6.1 | 0.00 | 0.00 | 0.00 | 77 | 983.2 |
| 20260506094402 | 64 | 193 | 3.5 | 5.2 | 0.00 | 0.00 | 0.00 | 77 | 983.2 |
| 20260506094150 | 64 | 166 | 3.5 | 5.2 | 0.00 | 0.00 | 0.00 | 76 | 983.2 |
| 20260506093402 | 64 | 197 | 2.6 | 5.2 | 0.00 | 0.00 | 0.00 | 76 | 983.2 |
| 20260506092902 | 64 | 160 | 1.7 | 5.2 | 0.00 | 0.00 | 0.00 | 76 | 983.1 |
| 20260506092401 | 64 | 174 | 2.6 | 6.1 | 0.00 | 0.00 | 0.00 | 75 | 983.2 |
| 20260506092143 | 64 | 210 | 3.5 | 7.0 | 0.00 | 0.00 | 0.00 | 75 | 983.3 |
| 20260506091401 | 64 | 286 | 3.5 | 7.0 | 0.00 | 0.00 | 0.00 | 74 | 983.2 |
| 20260506090905 | 64 | 176 | 2.6 | 6.1 | 0.00 | 0.00 | 0.00 | 74 | 983.2 |
| 20260506090406 | 64 | 118 | 1.7 | 5.2 | 0.00 | 0.00 | 0.00 | 74 | 983.2 |
| 20260506085941 | 65 | 243 | 2.6 | 7.0 | 0.00 | 0.00 | 0.00 | 74 | 983.3 |
| 20260506085929 | 65 | 192 | 2.6 | 7.0 | 0.00 | 0.00 | 0.00 | 74 | 983.2 |
| 20260506084902 | 65 | 187 | 2.6 | 6.1 | 0.00 | 0.00 | 0.00 | 73 | 983.3 |
| 20260506084401 | 65 | 210 | 2.6 | 7.0 | 0.00 | 0.00 | 0.00 | 73 | 983.2 |
| 20260506084141 | 65 | 218 | 2.6 | 7.0 | 0.00 | 0.00 | 0.00 | 73 | 983.2 |
| 20260506083400 | 65 | 272 | 3.5 | 7.8 | 0.00 | 0.00 | 0.00 | 73 | 983.1 |
| 20260506083146 | 65 | 194 | 3.5 | 7.8 | 0.00 | 0.00 | 0.00 | 72 | 983.2 |
| 20260506082401 | 66 | 199 | 3.5 | 6.1 | 0.00 | 0.00 | 0.00 | 72 | 983.2 |
| 20260506081902 | 66 | 134 | 3.5 | 8.7 | 0.00 | 0.00 | 0.00 | 72 | 983.1 |
| 20260506081402 | 66 | 181 | 4.3 | 8.7 | 0.00 | 0.00 | 0.00 | 72 | 983.1 |
| 20260506080902 | 66 | 202 | 4.3 | 8.7 | 0.00 | 0.00 | 0.00 | 71 | 983.2 |
| 20260506080402 | 66 | 201 | 4.3 | 8.7 | 0.00 | 0.00 | 0.00 | 71 | 983.3 |
| 20260506073401 | 66 | 184 | 3.5 | 9.6 | 0.00 | 0.00 | 0.00 | 71 | 983.3 |
| 20260506072902 | 66 | 184 | 3.5 | 9.6 | 0.00 | 0.00 | 0.00 | 70 | 983.3 |
| 20260506072401 | 66 | 197 | 2.6 | 6.1 | 0.00 | 0.00 | 0.00 | 70 | 983.4 |
| 20260506071902 | 66 | 167 | 2.6 | 6.1 | 0.00 | 0.00 | 0.00 | 70 | 983.4 |
| 20260506071401 | 66 | 191 | 2.6 | 7.0 | 0.00 | 0.00 | 0.00 | 70 | 983.5 |
| 20260506070901 | 66 | 195 | 2.6 | 7.0 | 0.00 | 0.00 | 0.00 | 70 | 983.6 |
| 20260506070646 | 66 | 170 | 2.6 | 7.0 | 0.00 | 0.00 | 0.00 | 70 | 983.6 |
| 20260506070147 | 66 | 137 | 2.6 | 7.0 | 0.00 | 0.00 | 0.00 | 69 | 983.7 |
| 20260506062349 | 66 | 185 | 1.7 | 4.3 | 0.00 | 0.00 | 0.00 | 67 | 984.0 |
| 20260506061835 | 66 | 241 | 1.7 | 4.3 | 0.00 | 0.00 | 0.00 | 67 | 984.0 |
| 20260506061333 | 67 | 140 | 2.6 | 8.7 | 0.00 | 0.00 | 0.00 | 67 | 984.1 |
| 20260506060830 | 67 | 164 | 3.5 | 8.7 | 0.00 | 0.00 | 0.00 | 66 | 984.1 |
| 20260506060330 | 67 | 192 | 3.5 | 7.8 | 0.00 | 0.00 | 0.00 | 66 | 984.0 |
| 20260506060122 | 67 | 170 | 3.5 | 7.8 | 0.00 | 0.00 | 0.00 | 65 | 984.1 |
| 20260506051328 | 67 | 222 | 3.5 | 8.7 | 0.00 | 0.00 | 0.00 | 63 | 984.3 |
| 20260506051118 | 67 | 191 | 3.5 | 7.8 | 0.00 | 0.00 | 0.00 | 63 | 984.3 |
| 20260506050329 | 67 | 157 | 4.3 | 10.4 | 0.00 | 0.00 | 0.00 | 62 | 984.4 |
| 20260506050130 | 68 | 269 | 4.3 | 10.4 | 0.00 | 0.00 | 0.00 | 62 | 984.3 |
| 20260506044830 | 68 | 176 | 4.3 | 9.6 | 0.00 | 0.00 | 0.00 | 61 | 984.4 |
| 20260506044330 | 68 | 205 | 4.3 | 10.4 | 0.00 | 0.00 | 0.00 | 61 | 984.4 |
| 20260506043830 | 68 | 303 | 3.5 | 10.4 | 0.00 | 0.00 | 0.00 | 60 | 984.4 |
| 20260506043330 | 68 | 274 | 4.3 | 9.6 | 0.00 | 0.00 | 0.00 | 60 | 984.4 |
| 20260506042829 | 68 | 293 | 5.2 | 10.4 | 0.00 | 0.00 | 0.00 | 60 | 984.4 |
| 20260506042330 | 68 | 215 | 4.3 | 10.4 | 0.00 | 0.00 | 0.00 | 60 | 984.4 |
| 20260506041829 | 68 | 157 | 3.5 | 9.6 | 0.00 | 0.00 | 0.00 | 60 | 984.5 |
| 20260506041329 | 68 | 198 | 3.5 | 8.7 | 0.00 | 0.00 | 0.00 | 60 | 984.4 |
| 20260506040830 | 68 | 271 | 4.3 | 8.7 | 0.00 | 0.00 | 0.00 | 60 | 984.5 |
| 20260506040330 | 68 | 156 | 4.3 | 9.6 | 0.00 | 0.00 | 0.00 | 59 | 984.5 |
| 20260506040119 | 68 | 166 | 3.5 | 9.6 | 0.00 | 0.00 | 0.00 | 59 | 984.4 |
| 20260506035620 | 68 | 217 | 4.3 | 9.6 | 0.00 | 0.00 | 0.00 | 60 | 984.4 |
| 20260506034830 | 68 | 263 | 4.3 | 9.6 | 0.00 | 0.00 | 0.00 | 59 | 984.4 |
| 20260506034326 | 68 | 259 | 4.3 | 10.4 | 0.00 | 0.00 | 0.00 | 59 | 984.4 |
| 20260506033826 | 68 | 177 | 5.2 | 10.4 | 0.00 | 0.00 | 0.00 | 59 | 984.3 |
| 20260506033327 | 68 | 186 | 4.3 | 9.6 | 0.00 | 0.00 | 0.00 | 59 | 984.2 |
| 20260506032828 | 68 | 159 | 3.5 | 11.3 | 0.00 | 0.00 | 0.00 | 60 | 984.4 |
| 20260506032328 | 68 | 274 | 3.5 | 11.3 | 0.00 | 0.00 | 0.00 | 59 | 984.4 |
| 20260506032119 | 68 | 254 | 3.5 | 7.8 | 0.00 | 0.00 | 0.00 | 59 | 984.3 |
| 20260506031328 | 68 | 302 | 3.5 | 8.7 | 0.00 | 0.00 | 0.00 | 59 | 984.4 |
| 20260506030828 | 68 | 144 | 4.3 | 8.7 | 0.00 | 0.00 | 0.00 | 58 | 984.3 |
| 20260506030619 | 69 | 298 | 3.5 | 7.8 | 0.00 | 0.00 | 0.00 | 58 | 984.4 |
| 20260506025829 | 69 | 223 | 3.5 | 7.8 | 0.00 | 0.00 | 0.00 | 58 | 984.4 |
| 20260506025412 | 69 | 199 | 4.3 | 9.6 | 0.00 | 0.00 | 0.00 | 57 | 984.3 |
| 20260506025352 | 69 | 215 | 4.3 | 7.8 | 0.00 | 0.00 | 0.00 | 57 | 984.3 |
| 20260506024617 | 69 | 168 | 3.5 | 9.6 | 0.00 | 0.00 | 0.00 | 56 | 984.3 |
| 20260506023825 | 69 | 244 | 3.5 | 9.6 | 0.00 | 0.00 | 0.00 | 56 | 984.3 |
| 20260506023616 | 69 | 219 | 3.5 | 9.6 | 0.00 | 0.00 | 0.00 | 56 | 984.4 |
| 20260506022825 | 69 | 301 | 3.5 | 7.8 | 0.00 | 0.00 | 0.00 | 55 | 984.4 |
| 20260506022325 | 69 | 154 | 3.5 | 9.6 | 0.00 | 0.00 | 0.00 | 55 | 984.3 |
| 20260506021825 | 70 | 249 | 4.3 | 9.6 | 0.00 | 0.00 | 0.00 | 55 | 984.4 |
| 20260506021325 | 70 | 199 | 3.5 | 7.8 | 0.00 | 0.00 | 0.00 | 55 | 984.4 |
| 20260506021114 | 70 | 174 | 3.5 | 7.0 | 0.00 | 0.00 | 0.00 | 55 | 984.4 |
| 20260506020326 | 70 | 303 | 3.5 | 7.8 | 0.00 | 0.00 | 0.00 | 55 | 984.4 |
| 20260506015825 | 70 | 188 | 3.5 | 7.8 | 0.00 | 0.00 | 0.00 | 54 | 984.4 |
| 20260506015615 | 70 | 205 | 3.5 | 8.7 | 0.00 | 0.00 | 0.00 | 55 | 984.4 |
| 20260506014820 | 70 | 239 | 2.6 | 8.7 | 0.00 | 0.00 | 0.00 | 54 | 984.2 |
| 20260506014323 | 70 | 178 | 2.6 | 7.8 | 0.00 | 0.00 | 0.00 | 54 | 984.2 |
| 20260506013821 | 70 | 199 | 3.5 | 7.8 | 0.00 | 0.00 | 0.00 | 53 | 984.2 |
| 20260506013320 | 71 | 220 | 3.5 | 7.8 | 0.00 | 0.00 | 0.00 | 52 | 984.2 |
| 20260506012820 | 71 | 181 | 3.5 | 7.0 | 0.00 | 0.00 | 0.00 | 52 | 984.1 |
| 20260506012606 | 71 | 231 | 3.5 | 7.8 | 0.00 | 0.00 | 0.00 | 52 | 984.1 |
| 20260506011820 | 71 | 207 | 2.6 | 7.8 | 0.00 | 0.00 | 0.00 | 52 | 984.0 |
| 20260506011320 | 71 | 207 | 3.5 | 7.0 | 0.00 | 0.00 | 0.00 | 51 | 983.9 |
| 20260506010820 | 71 | 210 | 3.5 | 7.0 | 0.00 | 0.00 | 0.00 | 50 | 983.9 |
| 20260506010320 | 71 | 161 | 3.5 | 10.4 | 0.00 | 0.00 | 0.00 | 51 | 983.8 |
| 20260506005821 | 72 | 162 | 4.3 | 10.4 | 0.00 | 0.00 | 0.00 | 49 | 983.8 |
| 20260506005318 | 72 | 219 | 3.5 | 10.4 | 0.00 | 0.00 | 0.00 | 49 | 983.7 |
| 20260506004815 | 72 | 216 | 3.5 | 8.7 | 0.00 | 0.00 | 0.00 | 49 | 983.6 |
| 20260506004603 | 72 | 196 | 4.3 | 9.6 | 0.00 | 0.00 | 0.00 | 48 | 983.6 |
| 20260506004141 | 73 | 220 | 4.3 | 8.7 | 0.00 | 0.00 | 0.00 | 47 | 983.6 |
| 20260506003843 | 72 | 222 | 5.2 | 9.6 | 0.00 | 0.00 | 0.00 | 48 | 983.6 |
| 20260506002816 | 73 | 221 | 3.5 | 7.8 | 0.00 | 0.00 | 0.00 | 48 | 983.6 |
| 20260506002316 | 73 | 219 | 3.5 | 7.0 | 0.00 | 0.00 | 0.00 | 47 | 983.6 |
| 20260506001816 | 73 | 226 | 2.6 | 5.2 | 0.00 | 0.00 | 0.00 | 48 | 983.6 |
| 20260506001355 | 73 | 223 | 3.5 | 9.6 | 0.00 | 0.00 | 0.00 | 46 | 983.4 |
| 20260506001341 | 73 | 223 | 3.5 | 9.6 | 0.00 | 0.00 | 0.00 | 46 | 983.5 |
| 20260506000316 | 74 | 224 | 3.5 | 8.7 | 0.00 | 0.00 | 0.00 | 45 | 983.4 |
| 20260505235812 | 74 | 222 | 3.5 | 7.0 | 0.00 | 0.00 | 0.00 | 45 | 983.3 |
| 20260505235312 | 74 | 220 | 2.6 | 7.0 | 0.00 | 0.00 | 0.00 | 44 | 983.2 |
| 20260505234813 | 74 | 220 | 3.5 | 7.0 | 0.00 | 0.00 | 0.00 | 44 | 983.3 |
| 20260505234312 | 74 | 222 | 3.5 | 7.8 | 0.00 | 0.00 | 0.00 | 44 | 983.2 |
| 20260505233851 | 74 | 213 | 5.2 | 9.6 | 0.00 | 0.00 | 0.00 | 44 | 983.1 |
| 20260505233838 | 74 | 224 | 4.3 | 7.8 | 0.00 | 0.00 | 0.00 | 44 | 983.2 |
| 20260505232813 | 74 | 219 | 4.3 | 9.6 | 0.00 | 0.00 | 0.00 | 45 | 983.1 |
| 20260505232313 | 75 | 221 | 4.3 | 12.2 | 0.00 | 0.00 | 0.00 | 44 | 983.1 |
| 20260505231813 | 75 | 224 | 4.3 | 12.2 | 0.00 | 0.00 | 0.00 | 44 | 983.0 |
| 20260505231313 | 75 | 223 | 4.3 | 9.6 | 0.00 | 0.00 | 0.00 | 44 | 983.2 |
| 20260505230813 | 75 | 217 | 5.2 | 9.6 | 0.00 | 0.00 | 0.00 | 43 | 983.2 |
| 20260505230313 | 75 | 217 | 5.2 | 9.6 | 0.00 | 0.00 | 0.00 | 43 | 983.2 |
| 20260505225811 | 75 | 222 | 5.2 | 9.6 | 0.00 | 0.00 | 0.00 | 44 | 983.2 |
| 20260505225556 | 76 | 219 | 5.2 | 12.2 | 0.00 | 0.00 | 0.00 | 45 | 983.1 |
| 20260505224811 | 76 | 212 | 6.1 | 12.2 | 0.00 | 0.00 | 0.00 | 43 | 983.2 |
| 20260505224311 | 76 | 223 | 5.2 | 10.4 | 0.00 | 0.00 | 0.00 | 43 | 983.1 |
| 20260505224055 | 76 | 218 | 6.1 | 10.4 | 0.00 | 0.00 | 0.00 | 44 | 983.0 |
| 20260505223552 | 76 | 218 | 7.0 | 11.3 | 0.00 | 0.00 | 0.00 | 43 | 983.0 |
| 20260505222808 | 77 | 217 | 6.1 | 14.8 | 0.00 | 0.00 | 0.00 | 43 | 983.1 |
| 20260505222308 | 77 | 221 | 5.2 | 14.8 | 0.00 | 0.00 | 0.00 | 43 | 983.1 |